Time,TemperatureF,DewpointF,PressureIn,WindDirection,WindDirectionDegrees,WindSpeedMPH,WindSpeedGustMPH,Humidity,HourlyPrecipIn,Conditions,Clouds,dailyrainin,SoftwareType,DateUTC
2013-08-20 00:01:00,67.1,65.3,30.10,East,86,0.0,0.0,94,0.00,,,0.00,Wunderground v.1.15,2013-08-20 04:01:00,
2013-08-20 00:02:00,67.1,65.3,30.10,SSE,149,0.0,0.0,94,0.00,,,0.00,Wunderground v.1.15,2013-08-20 04:02:00,
2013-08-20 00:04:00,67.1,65.3,30.10,SE,142,0.0,1.0,94,0.00,,,0.00,Wunderground v.1.15,2013-08-20 04:04:00,
2013-08-20 00:06:00,67.1,65.3,30.10,East,88,0.0,1.0,94,0.00,,,0.00,Wunderground v.1.15,2013-08-20 04:06:00,
2013-08-20 00:11:00,67.1,65.3,30.10,SE,135,0.0,0.0,94,0.00,,,0.00,Wunderground v.1.15,2013-08-20 04:11:00,
2013-08-20 00:16:00,67.1,65.3,30.10,SE,135,0.0,0.0,94,0.00,,,0.00,Wunderground v.1.15,2013-08-20 04:16:00,
2013-08-20 00:21:00,67.0,65.2,30.10,SE,134,0.0,0.0,94,0.00,,,0.00,Wunderground v.1.15,2013-08-20 04:21:00,
2013-08-20 00:26:00,67.0,65.2,30.10,SE,134,0.0,0.0,94,0.00,,,0.00,Wunderground v.1.15,2013-08-20 04:26:00,
2013-08-20 00:31:00,66.9,65.1,30.10,East,88,0.0,0.0,94,0.00,,,0.00,Wunderground v.1.15,2013-08-20 04:31:00,
2013-08-20 00:36:00,66.8,65.0,30.10,East,88,0.0,0.0,94,0.00,,,0.00,Wunderground v.1.15,2013-08-20 04:36:00,
2013-08-20 00:42:00,66.8,65.0,30.11,East,88,0.0,0.0,94,0.00,,,0.00,Wunderground v.1.15,2013-08-20 04:42:00,
2013-08-20 00:47:00,66.7,64.9,30.10,East,89,0.0,0.0,94,0.00,,,0.00,Wunderground v.1.15,2013-08-20 04:47:00,
2013-08-20 00:52:00,66.7,64.9,30.10,East,89,0.0,0.0,94,0.00,,,0.00,Wunderground v.1.15,2013-08-20 04:52:00,
2013-08-20 00:57:00,66.7,64.9,30.10,East,89,0.0,0.0,94,0.00,,,0.00,Wunderground v.1.15,2013-08-20 04:57:00,
2013-08-20 01:02:00,66.7,64.9,30.10,ESE,108,0.0,0.0,94,0.00,,,0.00,Wunderground v.1.15,2013-08-20 05:02:00,
2013-08-20 01:08:00,66.6,64.8,30.10,East,81,0.0,0.0,94,0.00,,,0.00,Wunderground v.1.15,2013-08-20 05:08:00,
2013-08-20 01:13:00,66.5,64.7,30.10,East,80,0.0,0.0,94,0.00,,,0.00,Wunderground v.1.15,2013-08-20 05:13:00,
2013-08-20 01:18:00,66.5,64.7,30.10,East,101,0.0,0.0,94,0.00,,,0.00,Wunderground v.1.15,2013-08-20 05:18:00,
2013-08-20 01:23:00,66.6,64.8,30.10,East,101,0.0,0.0,94,0.00,,,0.00,Wunderground v.1.15,2013-08-20 05:23:00,
2013-08-20 01:28:00,66.6,64.8,30.10,ESE,103,0.0,0.0,94,0.00,,,0.00,Wunderground v.1.15,2013-08-20 05:28:00,
2013-08-20 01:34:00,66.7,64.9,30.10,ESE,107,0.0,0.0,94,0.00,,,0.00,Wunderground v.1.15,2013-08-20 05:34:00,
2013-08-20 01:39:00,66.7,65.2,30.09,SE,140,0.0,1.0,95,0.00,,,0.00,Wunderground v.1.15,2013-08-20 05:39:00,
2013-08-20 01:44:00,66.8,65.3,30.09,East,79,0.0,0.0,95,0.00,,,0.00,Wunderground v.1.15,2013-08-20 05:44:00,
2013-08-20 01:49:00,66.7,64.9,30.09,East,80,1.0,1.0,94,0.00,,,0.00,Wunderground v.1.15,2013-08-20 05:49:00,
2013-08-20 01:54:00,66.7,65.2,30.09,East,80,0.0,0.0,95,0.00,,,0.00,Wunderground v.1.15,2013-08-20 05:54:00,
2013-08-20 02:00:00,66.7,64.9,30.09,ESE,111,0.0,0.0,94,0.00,,,0.00,Wunderground v.1.15,2013-08-20 06:00:00,
2013-08-20 02:05:00,66.7,64.9,30.09,East,96,0.0,7.0,94,0.00,,,0.00,Wunderground v.1.15,2013-08-20 06:05:00,
2013-08-20 02:10:00,66.7,64.9,30.08,ESE,119,0.0,0.0,94,0.00,,,0.00,Wunderground v.1.15,2013-08-20 06:10:00,
2013-08-20 02:15:00,66.6,64.8,30.08,East,96,0.0,1.0,94,0.00,,,0.00,Wunderground v.1.15,2013-08-20 06:15:00,
2013-08-20 02:20:00,66.6,64.8,30.08,ESE,105,0.0,0.0,94,0.00,,,0.00,Wunderground v.1.15,2013-08-20 06:20:00,
2013-08-20 02:25:00,66.5,64.7,30.08,ESE,105,0.0,1.0,94,0.00,,,0.00,Wunderground v.1.15,2013-08-20 06:25:00,
2013-08-20 02:30:00,66.5,64.7,30.08,ESE,103,0.0,0.0,94,0.00,,,0.00,Wunderground v.1.15,2013-08-20 06:30:00,
2013-08-20 02:35:00,66.4,64.6,30.08,ESE,102,0.0,1.0,94,0.00,,,0.00,Wunderground v.1.15,2013-08-20 06:35:00,
2013-08-20 02:40:00,66.3,64.5,30.08,ESE,102,0.0,0.0,94,0.00,,,0.00,Wunderground v.1.15,2013-08-20 06:40:00,
2013-08-20 02:45:00,66.2,64.4,30.08,ESE,102,0.0,0.0,94,0.00,,,0.00,Wunderground v.1.15,2013-08-20 06:45:00,
2013-08-20 02:50:00,66.1,64.3,30.08,ESE,102,0.0,0.0,94,0.00,,,0.00,Wunderground v.1.15,2013-08-20 06:50:00,
2013-08-20 02:55:00,66.0,64.2,30.08,ESE,102,0.0,1.0,94,0.00,,,0.00,Wunderground v.1.15,2013-08-20 06:55:00,
2013-08-20 03:00:00,66.0,64.2,30.08,ENE,77,0.0,0.0,94,0.00,,,0.00,Wunderground v.1.15,2013-08-20 07:00:00,
2013-08-20 03:05:00,65.9,64.1,30.08,ENE,77,0.0,0.0,94,0.00,,,0.00,Wunderground v.1.15,2013-08-20 07:05:00,
2013-08-20 03:10:00,65.8,64.0,30.08,ENE,77,0.0,0.0,94,0.00,,,0.00,Wunderground v.1.15,2013-08-20 07:10:00,
2013-08-20 03:15:00,65.8,64.0,30.08,ENE,76,0.0,0.0,94,0.00,,,0.00,Wunderground v.1.15,2013-08-20 07:15:00,
2013-08-20 03:20:00,65.9,64.1,30.08,ENE,76,0.0,0.0,94,0.00,,,0.00,Wunderground v.1.15,2013-08-20 07:20:00,
2013-08-20 03:25:00,65.9,64.1,30.08,ENE,76,0.0,0.0,94,0.00,,,0.00,Wunderground v.1.15,2013-08-20 07:25:00,
2013-08-20 03:30:00,66.0,64.2,30.08,ENE,62,0.0,0.0,94,0.00,,,0.00,Wunderground v.1.15,2013-08-20 07:30:00,
2013-08-20 03:35:00,66.0,64.2,30.08,ENE,66,0.0,0.0,94,0.00,,,0.00,Wunderground v.1.15,2013-08-20 07:35:00,
2013-08-20 03:40:00,65.9,64.1,30.08,ENE,64,0.0,0.0,94,0.00,,,0.00,Wunderground v.1.15,2013-08-20 07:40:00,
2013-08-20 03:45:00,65.9,64.1,30.08,ENE,65,0.0,1.0,94,0.00,,,0.00,Wunderground v.1.15,2013-08-20 07:45:00,
2013-08-20 03:50:00,65.9,64.1,30.08,ENE,65,0.0,0.0,94,0.00,,,0.00,Wunderground v.1.15,2013-08-20 07:50:00,
2013-08-20 03:55:00,65.8,64.0,30.08,ENE,65,0.0,0.0,94,0.00,,,0.00,Wunderground v.1.15,2013-08-20 07:55:00,
2013-08-20 04:00:00,65.8,64.0,30.08,ENE,65,0.0,0.0,94,0.00,,,0.00,Wunderground v.1.15,2013-08-20 08:00:00,
2013-08-20 04:05:00,65.8,64.0,30.09,ENE,64,0.0,0.0,94,0.00,,,0.00,Wunderground v.1.15,2013-08-20 08:05:00,
2013-08-20 04:10:00,65.8,64.0,30.08,ENE,64,0.0,0.0,94,0.00,,,0.00,Wunderground v.1.15,2013-08-20 08:10:00,
2013-08-20 04:15:00,65.8,64.0,30.09,ENE,64,0.0,0.0,94,0.00,,,0.00,Wunderground v.1.15,2013-08-20 08:15:00,
2013-08-20 04:20:00,65.7,63.9,30.09,ENE,64,0.0,0.0,94,0.00,,,0.00,Wunderground v.1.15,2013-08-20 08:20:00,
2013-08-20 04:25:00,65.6,63.8,30.08,ENE,64,0.0,1.0,94,0.00,,,0.00,Wunderground v.1.15,2013-08-20 08:25:00,
2013-08-20 04:30:00,65.6,63.8,30.08,ENE,65,0.0,0.0,94,0.00,,,0.00,Wunderground v.1.15,2013-08-20 08:30:00,
2013-08-20 04:35:00,65.5,63.7,30.08,ENE,65,0.0,0.0,94,0.00,,,0.00,Wunderground v.1.15,2013-08-20 08:35:00,
2013-08-20 04:40:00,65.5,64.0,30.08,ENE,65,0.0,0.0,95,0.00,,,0.00,Wunderground v.1.15,2013-08-20 08:40:00,
2013-08-20 04:45:00,65.5,64.0,30.08,ENE,65,0.0,0.0,95,0.00,,,0.00,Wunderground v.1.15,2013-08-20 08:45:00,
2013-08-20 04:50:00,65.5,64.0,30.08,ENE,65,0.0,0.0,95,0.00,,,0.00,Wunderground v.1.15,2013-08-20 08:50:00,
2013-08-20 04:55:00,65.4,63.9,30.08,ENE,67,0.0,0.0,95,0.00,,,0.00,Wunderground v.1.15,2013-08-20 08:55:00,
2013-08-20 05:00:00,65.4,63.9,30.08,ENE,70,0.0,0.0,95,0.00,,,0.00,Wunderground v.1.15,2013-08-20 09:00:00,
2013-08-20 05:05:00,65.3,63.8,30.08,ENE,70,0.0,0.0,95,0.00,,,0.00,Wunderground v.1.15,2013-08-20 09:05:00,
2013-08-20 05:10:00,65.3,63.5,30.08,East,97,0.0,0.0,94,0.00,,,0.00,Wunderground v.1.15,2013-08-20 09:10:00,
2013-08-20 05:15:00,65.3,63.5,30.08,East,97,0.0,0.0,94,0.00,,,0.00,Wunderground v.1.15,2013-08-20 09:15:00,
2013-08-20 05:20:00,65.2,63.4,30.08,East,97,0.0,0.0,94,0.00,,,0.00,Wunderground v.1.15,2013-08-20 09:20:00,
2013-08-20 05:25:00,65.1,63.3,30.08,East,97,0.0,0.0,94,0.00,,,0.00,Wunderground v.1.15,2013-08-20 09:25:00,
2013-08-20 05:30:00,65.1,63.3,30.08,East,97,0.0,0.0,94,0.00,,,0.00,Wunderground v.1.15,2013-08-20 09:30:00,
2013-08-20 05:35:00,65.0,63.5,30.08,East,97,0.0,0.0,95,0.00,,,0.00,Wunderground v.1.15,2013-08-20 09:35:00,
2013-08-20 05:40:00,65.0,63.5,30.08,East,97,0.0,0.0,95,0.00,,,0.00,Wunderground v.1.15,2013-08-20 09:40:00,
2013-08-20 05:45:00,65.0,63.5,30.08,East,97,0.0,0.0,95,0.00,,,0.00,Wunderground v.1.15,2013-08-20 09:45:00,
2013-08-20 05:50:00,65.0,63.5,30.08,East,97,0.0,0.0,95,0.00,,,0.00,Wunderground v.1.15,2013-08-20 09:50:00,
2013-08-20 05:55:00,65.0,63.5,30.08,East,97,0.0,1.0,95,0.00,,,0.00,Wunderground v.1.15,2013-08-20 09:55:00,
2013-08-20 06:00:00,65.0,63.5,30.08,East,97,0.0,0.0,95,0.00,,,0.00,Wunderground v.1.15,2013-08-20 10:00:00,
2013-08-20 06:05:00,65.0,63.5,30.09,East,97,0.0,0.0,95,0.00,,,0.00,Wunderground v.1.15,2013-08-20 10:05:00,
2013-08-20 06:10:00,65.0,63.5,30.08,East,97,0.0,0.0,95,0.00,,,0.00,Wunderground v.1.15,2013-08-20 10:10:00,
2013-08-20 06:15:00,65.0,63.5,30.08,East,97,0.0,0.0,95,0.00,,,0.00,Wunderground v.1.15,2013-08-20 10:15:00,
2013-08-20 06:20:00,65.0,63.5,30.08,East,97,0.0,0.0,95,0.00,,,0.00,Wunderground v.1.15,2013-08-20 10:20:00,
2013-08-20 06:25:00,64.9,63.4,30.09,East,97,0.0,0.0,95,0.00,,,0.00,Wunderground v.1.15,2013-08-20 10:25:00,
2013-08-20 06:30:00,64.9,63.4,30.09,East,97,0.0,0.0,95,0.00,,,0.00,Wunderground v.1.15,2013-08-20 10:30:00,
2013-08-20 06:35:00,64.8,63.3,30.09,East,97,0.0,0.0,95,0.00,,,0.00,Wunderground v.1.15,2013-08-20 10:35:00,
2013-08-20 06:40:00,64.7,63.2,30.09,East,97,0.0,0.0,95,0.00,,,0.00,Wunderground v.1.15,2013-08-20 10:40:00,
2013-08-20 06:45:00,64.7,63.2,30.09,East,97,0.0,0.0,95,0.00,,,0.00,Wunderground v.1.15,2013-08-20 10:45:00,
2013-08-20 06:50:00,64.6,63.1,30.09,East,97,0.0,0.0,95,0.00,,,0.00,Wunderground v.1.15,2013-08-20 10:50:00,
2013-08-20 06:55:00,64.6,63.1,30.09,East,97,0.0,0.0,95,0.00,,,0.00,Wunderground v.1.15,2013-08-20 10:55:00,
2013-08-20 07:00:00,64.7,63.2,30.10,East,97,0.0,0.0,95,0.00,,,0.00,Wunderground v.1.15,2013-08-20 11:00:00,
2013-08-20 07:05:00,64.7,63.2,30.10,East,97,0.0,0.0,95,0.00,,,0.00,Wunderground v.1.15,2013-08-20 11:05:00,
2013-08-20 07:10:00,64.8,63.3,30.10,East,97,0.0,0.0,95,0.00,,,0.00,Wunderground v.1.15,2013-08-20 11:10:00,
2013-08-20 07:15:00,64.8,63.3,30.09,East,97,0.0,0.0,95,0.00,,,0.00,Wunderground v.1.15,2013-08-20 11:15:00,
2013-08-20 07:20:00,64.8,63.3,30.10,East,97,0.0,0.0,95,0.00,,,0.00,Wunderground v.1.15,2013-08-20 11:20:00,
2013-08-20 07:25:00,64.8,63.3,30.10,East,97,0.0,0.0,95,0.00,,,0.00,Wunderground v.1.15,2013-08-20 11:25:00,
2013-08-20 07:30:00,64.9,63.4,30.10,East,97,0.0,0.0,95,0.00,,,0.00,Wunderground v.1.15,2013-08-20 11:30:00,
2013-08-20 07:35:00,64.9,63.4,30.10,East,97,0.0,0.0,95,0.00,,,0.00,Wunderground v.1.15,2013-08-20 11:35:00,
2013-08-20 07:40:00,64.9,63.4,30.10,East,97,0.0,0.0,95,0.00,,,0.00,Wunderground v.1.15,2013-08-20 11:40:00,
2013-08-20 07:45:00,64.9,63.4,30.10,ESE,104,0.0,1.0,95,0.00,,,0.00,Wunderground v.1.15,2013-08-20 11:45:00,
2013-08-20 07:50:00,65.0,63.5,30.10,ESE,104,0.0,0.0,95,0.00,,,0.00,Wunderground v.1.15,2013-08-20 11:50:00,
2013-08-20 07:55:00,64.9,63.4,30.10,ESE,104,0.0,0.0,95,0.00,,,0.00,Wunderground v.1.15,2013-08-20 11:55:00,
2013-08-20 08:00:00,64.9,63.4,30.11,ESE,104,0.0,0.0,95,0.00,,,0.00,Wunderground v.1.15,2013-08-20 12:00:00,
2013-08-20 08:05:00,64.9,63.4,30.10,ESE,104,0.0,0.0,95,0.00,,,0.00,Wunderground v.1.15,2013-08-20 12:05:00,
2013-08-20 08:10:00,64.9,63.4,30.11,ESE,104,0.0,0.0,95,0.00,,,0.00,Wunderground v.1.15,2013-08-20 12:10:00,
2013-08-20 08:15:00,64.9,63.4,30.11,ESE,104,0.0,0.0,95,0.00,,,0.00,Wunderground v.1.15,2013-08-20 12:15:00,
2013-08-20 08:20:00,65.0,63.5,30.11,ESE,104,0.0,0.0,95,0.00,,,0.00,Wunderground v.1.15,2013-08-20 12:20:00,
2013-08-20 08:25:00,65.4,63.9,30.11,ESE,104,0.0,0.0,95,0.00,,,0.00,Wunderground v.1.15,2013-08-20 12:25:00,
2013-08-20 08:30:00,65.8,64.6,30.11,ESE,104,0.0,0.0,96,0.00,,,0.00,Wunderground v.1.15,2013-08-20 12:30:00,
2013-08-20 08:35:00,66.1,64.6,30.11,ESE,104,0.0,0.0,95,0.00,,,0.00,Wunderground v.1.15,2013-08-20 12:35:00,
2013-08-20 08:40:00,66.0,64.5,30.11,SE,143,0.0,0.0,95,0.00,,,0.00,Wunderground v.1.15,2013-08-20 12:40:00,
2013-08-20 08:45:00,66.1,64.6,30.12,SE,143,0.0,0.0,95,0.00,,,0.00,Wunderground v.1.15,2013-08-20 12:45:00,
2013-08-20 08:50:00,66.6,65.4,30.12,SE,143,0.0,0.0,96,0.00,,,0.00,Wunderground v.1.15,2013-08-20 12:50:00,
2013-08-20 08:55:00,67.2,66.0,30.12,SE,143,0.0,0.0,96,0.00,,,0.00,Wunderground v.1.15,2013-08-20 12:55:00,
2013-08-20 09:00:00,67.6,66.4,30.12,SW,216,0.0,0.0,96,0.00,,,0.00,Wunderground v.1.15,2013-08-20 13:00:00,
2013-08-20 09:05:00,67.9,66.4,30.12,SW,236,0.0,1.0,95,0.00,,,0.00,Wunderground v.1.15,2013-08-20 13:05:00,
2013-08-20 09:10:00,68.1,66.6,30.12,WSW,237,0.0,0.0,95,0.00,,,0.00,Wunderground v.1.15,2013-08-20 13:10:00,
2013-08-20 09:15:00,68.6,66.8,30.12,WSW,240,0.0,1.0,94,0.00,,,0.00,Wunderground v.1.15,2013-08-20 13:15:00,
2013-08-20 09:20:00,69.0,66.9,30.13,WSW,243,0.0,0.0,93,0.00,,,0.00,Wunderground v.1.15,2013-08-20 13:20:00,
2013-08-20 09:25:00,69.6,67.5,30.13,NNW,332,0.0,1.0,93,0.00,,,0.00,Wunderground v.1.15,2013-08-20 13:25:00,
2013-08-20 09:30:00,70.1,67.7,30.13,NNW,332,1.0,1.0,92,0.00,,,0.00,Wunderground v.1.15,2013-08-20 13:30:00,
2013-08-20 09:35:00,70.4,67.6,30.13,SE,124,0.0,5.0,91,0.00,,,0.00,Wunderground v.1.15,2013-08-20 13:35:00,
2013-08-20 09:40:00,71.1,68.0,30.13,East,92,0.0,0.0,90,0.00,,,0.00,Wunderground v.1.15,2013-08-20 13:40:00,
2013-08-20 09:45:00,71.5,67.8,30.13,ENE,72,0.0,1.0,88,0.00,,,0.00,Wunderground v.1.15,2013-08-20 13:45:00,
2013-08-20 09:50:00,71.8,67.7,30.13,ESE,121,0.0,1.0,87,0.00,,,0.00,Wunderground v.1.15,2013-08-20 13:50:00,
2013-08-20 09:55:00,72.1,67.7,30.13,SE,130,0.0,5.0,86,0.00,,,0.00,Wunderground v.1.15,2013-08-20 13:55:00,
2013-08-20 10:00:00,72.5,68.1,30.13,ENE,60,0.0,2.0,86,0.00,,,0.00,Wunderground v.1.15,2013-08-20 14:00:00,
2013-08-20 10:05:00,73.0,68.2,30.14,South,169,0.0,2.0,85,0.00,,,0.00,Wunderground v.1.15,2013-08-20 14:05:00,
2013-08-20 10:10:00,73.4,68.3,30.14,ENE,59,2.0,5.0,84,0.00,,,0.00,Wunderground v.1.15,2013-08-20 14:10:00,
2013-08-20 10:15:00,73.5,68.4,30.14,ENE,57,0.0,5.0,84,0.00,,,0.00,Wunderground v.1.15,2013-08-20 14:15:00,
2013-08-20 10:20:00,73.3,67.8,30.14,ENE,60,4.0,4.0,83,0.00,,,0.00,Wunderground v.1.15,2013-08-20 14:20:00,
2013-08-20 10:25:00,73.1,67.6,30.14,East,87,0.0,4.0,83,0.00,,,0.00,Wunderground v.1.15,2013-08-20 14:25:00,
2013-08-20 10:30:00,73.0,67.2,30.14,ENE,65,0.0,1.0,82,0.00,,,0.00,Wunderground v.1.15,2013-08-20 14:30:00,
2013-08-20 10:35:00,72.9,67.4,30.14,NE,42,0.0,4.0,83,0.00,,,0.00,Wunderground v.1.15,2013-08-20 14:35:00,
2013-08-20 10:40:00,72.8,67.3,30.15,East,89,0.0,1.0,83,0.00,,,0.00,Wunderground v.1.15,2013-08-20 14:40:00,
2013-08-20 10:45:00,73.0,67.9,30.15,ENE,78,0.0,1.0,84,0.00,,,0.00,Wunderground v.1.15,2013-08-20 14:45:00,
2013-08-20 10:50:00,73.6,68.5,30.15,East,97,0.0,0.0,84,0.00,,,0.00,Wunderground v.1.15,2013-08-20 14:50:00,
2013-08-20 10:55:00,74.1,68.3,30.15,ENE,74,3.0,4.0,82,0.00,,,0.00,Wunderground v.1.15,2013-08-20 14:55:00,
2013-08-20 11:01:00,74.1,67.9,30.15,NNW,332,0.0,3.0,81,0.00,,,0.00,Wunderground v.1.15,2013-08-20 15:01:00,
2013-08-20 11:06:00,74.3,67.7,30.15,NE,47,0.0,3.0,80,0.00,,,0.00,Wunderground v.1.15,2013-08-20 15:06:00,
2013-08-20 11:11:00,74.6,68.7,30.15,SE,132,0.0,1.0,82,0.00,,,0.00,Wunderground v.1.15,2013-08-20 15:11:00,
2013-08-20 11:16:00,74.4,67.8,30.15,ESE,117,2.0,4.0,80,0.00,,,0.00,Wunderground v.1.15,2013-08-20 15:16:00,
2013-08-20 11:21:00,74.3,67.7,30.15,ESE,114,0.0,0.0,80,0.00,,,0.00,Wunderground v.1.15,2013-08-20 15:21:00,
2013-08-20 11:26:00,74.4,68.5,30.15,East,93,1.0,3.0,82,0.00,,,0.00,Wunderground v.1.15,2013-08-20 15:26:00,
2013-08-20 11:30:00,74.1,67.9,30.15,East,96,0.0,0.0,81,0.00,,,0.00,Wunderground v.1.15,2013-08-20 15:30:00,
2013-08-20 11:35:00,74.1,68.6,30.15,East,96,0.0,0.0,83,0.00,,,0.00,Wunderground v.1.15,2013-08-20 15:35:00,
2013-08-20 11:40:00,74.0,68.2,30.15,NNW,346,0.0,0.0,82,0.00,,,0.00,Wunderground v.1.15,2013-08-20 15:40:00,
2013-08-20 11:46:00,74.1,68.3,30.15,NNE,18,1.0,3.0,82,0.00,,,0.00,Wunderground v.1.15,2013-08-20 15:46:00,
2013-08-20 11:51:00,74.1,67.9,30.15,East,91,1.0,5.0,81,0.00,,,0.00,Wunderground v.1.15,2013-08-20 15:51:00,
2013-08-20 11:56:00,74.3,68.8,30.15,ESE,120,0.0,7.0,83,0.00,,,0.00,Wunderground v.1.15,2013-08-20 15:56:00,
2013-08-20 12:01:00,74.3,68.4,30.15,ENE,67,0.0,1.0,82,0.00,,,0.00,Wunderground v.1.15,2013-08-20 16:01:00,
2013-08-20 12:06:00,74.2,68.3,30.15,East,84,0.0,4.0,82,0.00,,,0.00,Wunderground v.1.15,2013-08-20 16:06:00,
2013-08-20 12:11:00,74.4,68.9,30.14,SE,125,0.0,1.0,83,0.00,,,0.00,Wunderground v.1.15,2013-08-20 16:11:00,
2013-08-20 12:16:00,74.9,69.0,30.15,East,86,0.0,6.0,82,0.00,,,0.00,Wunderground v.1.15,2013-08-20 16:16:00,
2013-08-20 12:21:00,75.5,69.3,30.15,North,355,6.0,6.0,81,0.00,,,0.00,Wunderground v.1.15,2013-08-20 16:21:00,
2013-08-20 12:26:00,75.4,68.1,30.15,NE,55,0.0,7.0,78,0.00,,,0.00,Wunderground v.1.15,2013-08-20 16:26:00,
2013-08-20 12:31:00,75.4,69.2,30.15,ENE,57,0.0,1.0,81,0.00,,,0.00,Wunderground v.1.15,2013-08-20 16:31:00,
2013-08-20 12:36:00,75.6,69.0,30.15,ESE,113,0.0,1.0,80,0.00,,,0.00,Wunderground v.1.15,2013-08-20 16:36:00,
2013-08-20 12:41:00,75.7,68.7,30.15,ESE,107,0.0,0.0,79,0.00,,,0.00,Wunderground v.1.15,2013-08-20 16:41:00,
2013-08-20 12:46:00,75.7,68.7,30.15,ESE,108,0.0,0.0,79,0.00,,,0.00,Wunderground v.1.15,2013-08-20 16:46:00,
2013-08-20 12:51:00,75.5,68.2,30.15,ESE,104,0.0,5.0,78,0.00,,,0.00,Wunderground v.1.15,2013-08-20 16:51:00,
2013-08-20 12:56:00,75.3,69.1,30.15,ESE,113,0.0,5.0,81,0.00,,,0.00,Wunderground v.1.15,2013-08-20 16:56:00,
2013-08-20 13:01:00,75.0,68.4,30.15,SE,125,0.0,2.0,80,0.00,,,0.00,Wunderground v.1.15,2013-08-20 17:01:00,
2013-08-20 13:06:00,74.6,68.4,30.15,ESE,105,0.0,2.0,81,0.00,,,0.00,Wunderground v.1.15,2013-08-20 17:06:00,
2013-08-20 13:11:00,74.5,68.3,30.15,SSE,163,0.0,0.0,81,0.00,,,0.00,Wunderground v.1.15,2013-08-20 17:11:00,
2013-08-20 13:16:00,74.2,68.3,30.15,SSE,162,0.0,1.0,82,0.00,,,0.00,Wunderground v.1.15,2013-08-20 17:16:00,
2013-08-20 13:21:00,74.2,68.7,30.14,SE,138,0.0,1.0,83,0.00,,,0.00,Wunderground v.1.15,2013-08-20 17:21:00,
2013-08-20 13:26:00,74.2,69.1,30.14,SE,134,0.0,1.0,84,0.00,,,0.00,Wunderground v.1.15,2013-08-20 17:26:00,
2013-08-20 13:31:00,74.2,68.7,30.14,SE,133,0.0,0.0,83,0.00,,,0.00,Wunderground v.1.15,2013-08-20 17:31:00,
2013-08-20 13:36:00,74.3,68.4,30.14,SE,133,0.0,0.0,82,0.00,,,0.00,Wunderground v.1.15,2013-08-20 17:36:00,
2013-08-20 13:41:00,74.4,68.9,30.14,ESE,123,0.0,1.0,83,0.00,,,0.00,Wunderground v.1.15,2013-08-20 17:41:00,
2013-08-20 13:46:00,74.4,68.5,30.14,ESE,113,0.0,1.0,82,0.00,,,0.00,Wunderground v.1.15,2013-08-20 17:46:00,
2013-08-20 13:51:00,74.8,69.3,30.14,East,85,0.0,1.0,83,0.00,,,0.00,Wunderground v.1.15,2013-08-20 17:51:00,
2013-08-20 13:56:00,75.0,69.1,30.14,ENE,76,1.0,4.0,82,0.00,,,0.00,Wunderground v.1.15,2013-08-20 17:56:00,
2013-08-20 14:00:00,75.1,68.5,30.14,ESE,114,0.0,1.0,80,0.00,,,0.00,Wunderground v.1.15,2013-08-20 18:00:00,
2013-08-20 14:06:00,75.3,68.3,30.13,ESE,112,0.0,1.0,79,0.00,,,0.00,Wunderground v.1.15,2013-08-20 18:06:00,
2013-08-20 14:10:00,75.6,69.0,30.13,ESE,112,0.0,0.0,80,0.00,,,0.00,Wunderground v.1.15,2013-08-20 18:10:00,
2013-08-20 14:16:00,75.8,68.8,30.13,ENE,65,0.0,4.0,79,0.00,,,0.00,Wunderground v.1.15,2013-08-20 18:16:00,
2013-08-20 14:21:00,75.7,68.7,30.13,ENE,67,0.0,1.0,79,0.00,,,0.00,Wunderground v.1.15,2013-08-20 18:21:00,